Theta_e
306 297 292 291 295 296 297 297 297 297 296 294 296 294 291 292 292 295 295 297 297 294 292 293 294 294 295 296 298 299 300 299 299 299 300 299 300 301 302 302 302 303 304 306 309 311 310 311 312 312 312 314 314 315 315 315 315 315 314 313 312 314 314 314 313 312 312 311 310 310 312 313 314 315 315 315 316 317 318 318 319 321 322 323 324 323
303 295 295 297 298 298 298 299 297 297 295 294 293 293 291 295 290 296 295 296 297 294 291 293 292 294 295 297 297 299 299 299 299 299 299 300 301 301 302 302 303 304 305 308 307 309 310 309 310 310 311 311 312 313 314 314 314 314 314 313 313 313 314 313 313 312 311 311 312 312 311 310 312 310 312 311 311 313 315 316 317 317 319 320 320 319
294 292 296 299 299 299 298 298 297 295 296 296 292 291 291 291 295 296 295 296 296 294 290 293 292 294 296 297 299 299 299 300 301 301 301 300 300 301 302 302 303 303 304 307 307 309 309 309 310 309 309 310 312 312 312 313 313 312 313 313 313 313 313 312 312 312 311 311 312 313 310 314 307 309 311 311 309 308 312 313 315 315 316 318 318 318
291 294 298 300 300 297 297 296 295 296 297 293 292 290 288 294 290 288 295 296 295 294 291 292 291 293 296 298 298 300 300 300 302 302 302 303 302 302 303 302 302 302 304 307 306 307 307 308 308 307 308 309 310 310 310 310 311 312 311 312 312 312 312 312 310 310 312 312 313 314 312 310 306 302 303 305 305 305 306 308 311 313 314 315 316 316
293 298 300 299 300 298 295 297 295 292 290 294 295 293 292 295 295 292 292 295 297 296 296 293 292 292 295 295 296 299 301 300 301 301 302 302 304 304 304 304 306 304 303 307 306 305 306 307 307 307 307 308 308 309 309 309 310 311 310 311 311 311 311 311 310 311 312 308 306 305 305 304 303 303 302 303 303 304 305 304 305 308 311 312 313 314
296 299 302 297 299 298 297 292 293 294 288 292 295 295 295 296 293 296 296 295 289 288 295 295 283 285 293 295 296 298 300 298 299 300 301 301 302 302 303 304 304 306 306 305 306 306 306 306 305 305 306 307 307 308 309 309 310 310 310 311 311 310 309 309 310 311 310 307 305 305 306 305 305 303 302 303 303 302 303 303 303 302 307 310 311 311
295 299 301 298 296 296 296 294 296 297 290 289 291 298 298 296 296 295 294 292 283 280 293 295 285 281 289 291 294 296 296 296 298 300 301 301 302 302 303 304 304 305 305 306 306 305 304 304 305 305 306 306 307 308 309 309 309 309 309 309 310 309 308 309 309 310 307 309 308 307 308 308 308 307 305 306 306 303 304 304 302 301 302 307 309 310
296 296 298 298 298 295 295 292 297 296 291 287 297 298 298 296 294 294 295 293 288 293 295 296 291 283 284 289 295 296 295 295 295 297 298 300 301 302 302 304 304 305 305 306 305 304 305 305 305 305 306 306 307 307 308 308 309 309 309 309 309 308 307 308 309 309 307 309 309 308 308 308 308 308 305 305 304 304 303 303 301 300 300 302 306 307
297 295 296 296 296 293 293 296 299 298 294 294 295 299 297 297 297 295 293 290 290 287 284 289 293 284 283 289 295 296 292 293 294 296 297 298 299 300 301 302 304 305 306 306 305 303 304 304 304 304 305 306 307 308 308 308 308 308 308 308 308 307 307 307 307 307 307 308 309 308 309 308 308 309 306 305 303 302 301 301 299 299 299 300 301 303
298 298 298 299 295 292 296 294 298 300 292 294 299 298 298 297 296 296 290 289 287 284 282 288 292 282 284 288 291 292 292 292 294 296 297 298 299 302 304 304 304 304 303 303 305 303 303 304 304 304 305 306 306 307 308 308 308 308 308 308 308 306 307 307 307 305 306 308 308 308 308 308 308 309 306 304 303 301 300 299 298 298 298 299 299 300
297 297 297 299 297 299 294 295 296 297 297 299 298 297 295 293 292 290 290 287 284 280 282 291 292 288 281 288 290 291 292 293 294 296 297 299 301 304 306 305 303 304 303 302 302 302 302 303 304 304 304 305 306 307 308 307 307 307 307 307 307 307 307 306 305 304 305 308 308 308 308 309 309 309 305 303 301 299 299 299 296 297 297 297 299 299
297 296 296 297 297 297 297 294 297 299 298 298 294 291 291 289 289 287 286 286 280 279 284 291 292 289 279 283 293 295 297 295 295 293 294 296 300 305 305 304 304 303 303 301 300 300 300 301 301 302 303 304 305 306 307 306 307 307 307 307 306 306 306 305 304 304 304 306 308 308 309 309 309 309 304 303 301 299 300 300 296 296 295 296 296 297
291 293 296 295 297 298 295 293 293 295 296 297 292 290 284 282 282 281 283 279 280 278 282 288 292 286 285 287 291 294 296 297 297 296 296 299 299 302 304 303 302 302 301 301 300 300 300 300 300 301 301 303 304 305 306 306 306 306 306 306 305 305 305 304 303 303 304 305 307 307 308 309 309 308 305 305 303 301 301 300 297 295 294 294 294 295
288 294 295 295 295 297 298 289 286 285 290 293 289 285 282 278 277 274 278 281 281 282 286 286 288 284 289 290 295 297 299 298 297 298 300 301 301 300 301 303 303 301 301 301 301 300 299 300 300 300 301 303 304 305 306 305 305 305 306 305 305 305 305 304 302 302 303 304 306 307 308 309 309 308 305 305 303 301 302 301 298 296 295 294 294 294
281 283 291 293 288 297 296 295 293 289 290 292 294 291 284 281 277 273 278 276 278 281 283 286 282 280 280 286 296 297 297 298 298 298 298 301 301 301 302 304 303 301 300 301 301 301 301 301 301 301 301 302 303 305 305 305 305 304 304 304 304 304 304 304 302 302 302 303 305 306 307 309 308 307 304 304 303 301 301 301 300 297 296 295 295 295
286 285 295 298 297 297 295 299 300 295 291 291 294 296 287 284 287 278 282 282 280 279 279 280 281 283 287 294 295 296 295 297 299 298 298 298 299 300 301 301 303 303 302 302 302 302 301 301 301 301 301 302 303 304 305 304 304 304 304 304 304 303 303 304 302 301 301 302 304 305 306 307 307 305 304 303 301 301 301 300 300 298 297 297 297 296
286 283 294 297 297 295 296 299 299 298 283 289 291 285 288 294 291 284 282 282 280 279 279 282 284 287 290 294 295 297 296 296 297 298 297 298 298 298 300 301 300 302 302 302 302 302 302 302 301 301 301 301 302 303 304 304 304 304 303 303 303 303 303 303 302 301 301 302 303 304 305 306 305 304 303 303 301 300 301 300 299 298 297 297 297 296
285 288 291 293 292 295 294 296 299 297 299 291 282 288 295 295 293 286 279 281 279 277 279 280 281 283 282 282 292 292 291 294 294 296 298 298 297 298 300 301 302 301 303 303 303 303 303 303 302 302 301 302 302 303 304 304 304 304 304 303 303 302 302 303 302 301 301 301 302 303 304 305 304 304 303 303 301 300 300 300 299 299 298 297 297 296
294 283 288 291 292 294 297 297 296 298 297 293 289 298 290 281 281 284 281 275 274 273 276 280 281 283 285 287 289 290 290 292 294 295 296 296 297 298 298 300 301 301 304 302 302 302 302 301 301 301 301 301 302 303 304 304 304 304 303 303 303 303 303 303 303 301 300 301 302 302 303 304 304 303 302 302 302 300 300 299 299 299 299 298 296 295
293 284 285 289 291 293 294 293 285 288 296 298 297 292 296 287 283 281 282 281 280 275 274 278 279 281 288 288 291 293 293 295 295 295 295 297 297 298 298 300 301 301 301 303 302 301 301 301 300 300 301 301 302 302 303 304 303 303 303 303 302 302 302 302 301 299 299 300 301 301 302 302 303 302 301 301 301 300 300 300 299 299 297 297 295 294
288 288 281 285 291 292 284 289 287 289 287 286 287 285 289 286 290 285 285 282 279 276 275 275 277 283 288 293 293 294 295 295 296 296 297 297 297 298 299 300 301 302 302 302 302 300 300 299 298 298 298 299 299 301 302 303 303 303 303 303 302 302 302 302 302 300 299 298 300 301 301 301 302 301 301 300 300 300 300 300 298 298 297 294 293 292
286 283 283 283 283 284 287 293 293 294 293 291 290 288 290 287 283 279 279 288 284 281 277 278 278 285 294 299 295 294 296 296 297 296 298 298 298 299 300 300 302 303 303 303 301 299 298 297 297 297 296 296 297 300 301 303 302 302 302 303 302 302 302 302 302 301 299 298 298 299 300 300 301 300 299 299 298 298 298 298 297 296 294 292 291 291
294 288 284 282 285 287 290 294 296 294 296 293 292 289 292 289 286 282 277 280 284 282 284 281 278 285 293 295 295 296 296 296 297 296 298 298 299 299 301 303 304 304 303 301 299 299 298 297 297 297 297 297 298 299 299 300 302 302 302 302 302 302 301 302 302 302 300 298 298 298 299 299 298 298 298 297 295 296 296 295 295 293 293 292 290 290
296 286 283 284 290 291 292 295 294 295 295 291 292 292 290 288 289 286 283 283 283 282 282 281 278 285 293 295 295 297 298 296 297 299 300 298 299 302 304 303 302 302 300 299 297 297 296 294 294 294 295 297 298 298 300 301 302 302 302 302 301 301 301 301 302 302 300 298 296 296 297 297 296 295 295 296 295 295 295 294 293 292 292 292 290 290
287 285 286 281 281 283 286 289 288 292 291 286 286 291 293 292 292 287 284 285 283 283 284 282 278 284 295 295 295 296 296 297 298 299 299 299 299 301 301 302 302 301 299 297 297 296 295 293 294 296 296 297 297 298 299 300 301 301 301 301 301 300 300 301 301 300 300 296 293 293 295 296 296 294 293 293 293 293 293 293 292 292 292 291 290 290
289 287 286 280 277 276 275 278 280 282 285 286 287 290 293 292 290 286 285 284 282 284 285 282 283 289 293 294 294 293 294 295 295 296 297 297 299 302 303 301 302 301 300 299 298 295 295 295 293 293 294 296 296 297 298 300 300 301 301 301 301 300 300 300 300 300 298 295 293 293 293 295 295 294 293 292 292 292 291 291 291 291 291 291 290 289
285 288 289 286 284 282 284 285 288 290 285 284 286 289 291 293 293 291 286 284 283 285 284 286 287 289 290 292 292 293 293 294 294 295 296 296 297 297 298 300 300 300 300 300 299 298 295 293 295 295 295 296 296 296 298 299 299 299 299 299 299 300 299 299 299 298 297 295 294 293 293 294 295 294 293 292 292 291 291 290 289 289 290 290 290 289
286 286 289 289 288 289 289 291 292 292 287 289 288 288 290 291 291 289 287 286 290 285 282 288 290 287 289 292 293 294 293 293 295 295 295 296 297 298 299 299 299 300 299 300 299 299 298 298 296 295 295 295 296 296 297 298 298 299 299 299 299 299 298 299 297 297 295 295 294 294 293 294 294 294 293 291 291 291 291 290 290 289 290 289 289 288
287 286 288 289 289 291 291 292 293 292 291 290 290 289 288 290 290 288 289 291 291 286 284 289 289 288 291 293 294 294 296 297 298 297 297 297 297 297 297 298 298 299 299 298 299 299 298 298 298 297 296 296 295 295 295 295 296 297 298 298 298 298 298 297 296 296 295 294 294 294 293 293 294 294 293 291 290 290 290 290 290 289 289 288 288 288
289 287 288 290 287 289 290 290 291 291 290 291 290 290 290 290 290 290 290 292 291 289 291 291 291 290 293 295 296 296 297 298 299 300 300 300 300 300 299 298 298 299 299 300 300 300 299 300 299 299 298 296 295 295 295 295 296 297 298 298 297 297 298 295 296 296 295 294 294 293 292 293 293 293 293 291 290 290 289 289 289 288 288 288 288 288
291 286 291 288 286 286 288 289 289 289 289 287 289 290 291 291 291 291 291 291 291 290 292 292 290 290 296 298 297 299 299 300 299 299 300 300 300 299 297 297 298 299 299 299 299 299 300 301 301 300 298 297 296 296 296 296 297 297 296 297 297 297 297 296 295 295 295 294 294 292 292 292 292 292 292 292 291 290 289 288 288 287 287 287 287 287
290 285 288 287 285 285 288 287 287 286 286 286 286 288 289 289 287 290 288 291 289 288 290 289 288 289 295 298 298 299 299 298 298 299 300 300 300 298 298 300 299 299 299 300 301 300 301 301 301 300 300 299 297 296 296 296 296 295 296 297 297 298 296 295 295 295 294 294 293 292 292 292 291 291 292 292 291 289 288 288 287 287 286 286 286 286
287 286 286 285 283 284 288 288 286 285 285 284 286 288 290 291 292 292 293 294 293 293 288 286 288 294 296 297 296 297 298 298 298 299 299 300 300 299 299 299 300 300 301 300 300 300 301 301 301 301 301 300 299 298 297 297 295 295 296 296 297 296 295 296 296 295 294 293 292 292 292 291 290 290 290 290 290 289 287 287 286 286 286 285 286 285
288 287 286 287 283 284 287 286 286 284 278 280 293 295 294 291 291 290 290 293 295 296 293 295 295 297 297 297 296 296 297 298 299 300 301 301 300 298 297 299 300 299 299 299 301 301 302 302 302 302 301 301 300 299 299 297 296 296 297 296 294 294 296 296 295 294 293 292 292 292 291 290 289 289 289 288 288 288 287 286 286 286 286 286 285 284
287 287 286 287 284 284 286 285 282 277 280 291 295 296 297 296 295 293 293 295 295 296 296 296 297 297 298 299 299 299 299 300 301 300 301 302 302 299 299 300 301 301 301 302 302 302 302 302 303 302 300 298 298 297 296 295 295 295 293 293 294 295 295 295 295 294 293 292 292 291 290 290 289 289 288 287 287 287 286 286 286 285 285 285 285 284
287 287 287 286 286 287 284 284 277 279 287 291 293 295 297 296 295 293 291 294 296 296 296 295 297 298 299 299 300 300 300 300 299 299 300 302 301 298 300 301 302 301 301 302 302 302 302 302 302 301 299 298 295 296 294 296 295 294 294 293 293 293 294 294 294 294 292 292 291 291 290 290 289 288 287 287 286 286 286 286 286 285 285 285 285 285
291 289 287 284 288 281 284 283 283 288 288 288 289 289 291 288 288 290 286 290 296 297 297 296 296 297 298 299 300 299 298 297 296 299 301 299 299 299 301 302 302 302 302 302 301 302 302 301 298 298 297 296 296 294 294 295 293 293 292 291 292 292 293 293 293 293 292 292 292 291 290 290 289 288 287 286 286 286 286 286 285 285 286 285 285 284
295 288 289 286 284 287 283 282 282 282 279 285 292 296 296 296 296 295 291 289 296 296 298 297 296 297 297 297 295 295 295 292 292 295 299 298 299 300 299 300 300 299 298 298 298 296 296 294 294 295 295 296 296 295 295 292 292 292 291 291 291 291 291 291 292 293 292 292 291 291 290 290 289 288 287 286 286 286 286 286 286 285 285 285 285 284
294 294 290 287 285 285 283 280 280 279 282 288 290 292 293 293 296 291 289 286 293 294 294 294 295 296 296 294 294 294 291 289 291 296 300 298 296 297 297 296 296 293 293 293 293 293 293 293 291 293 291 291 294 295 291 289 290 291 291 290 290 291 291 291 292 292 292 292 291 290 289 289 289 288 287 286 286 286 285 285 285 286 285 285 285 285
289 288 287 285 284 285 284 282 279 284 284 288 290 289 289 292 296 291 282 283 294 296 293 296 296 296 296 296 294 291 291 289 291 296 300 299 296 294 294 293 293 294 293 291 290 291 292 291 291 293 292 291 292 291 290 288 289 290 290 290 290 290 290 291 292 292 291 288 289 288 288 288 288 287 287 286 286 285 285 285 285 285 285 285 285 285
286 286 287 282 284 285 285 283 285 285 289 290 290 290 292 294 293 285 280 287 291 292 293 296 296 297 297 294 293 292 293 297 298 300 299 291 290 292 291 291 291 291 293 293 293 290 290 291 289 290 290 290 289 288 288 287 288 289 289 289 288 289 291 291 290 287 288 288 288 287 287 288 288 287 287 286 285 285 285 285 285 285 284 284 285 284
285 286 285 286 284 283 284 282 282 286 288 290 290 292 291 291 284 283 290 290 292 292 290 292 294 294 293 295 294 295 297 297 295 293 293 292 291 291 291 291 290 290 291 291 290 289 290 289 289 288 287 286 287 287 286 286 288 289 288 287 288 290 290 287 287 287 287 287 287 287 287 287 287 287 286 285 285 285 285 285 285 285 284 284 284 284
284 284 282 283 284 285 284 282 281 278 289 294 292 289 291 286 288 292 292 294 292 292 291 291 291 290 292 291 292 294 294 293 292 292 291 290 290 288 289 290 291 290 291 291 292 291 288 289 289 289 288 286 285 285 285 285 287 287 287 287 289 288 286 285 286 287 287 286 286 285 286 286 286 285 285 285 285 285 285 285 284 284 284 283 283 283
287 284 283 284 287 281 281 279 280 286 289 294 294 286 289 292 294 291 290 289 291 291 290 290 290 289 289 289 289 289 289 289 289 290 290 291 291 288 287 287 287 287 288 288 287 288 287 287 288 288 287 286 284 284 284 286 287 287 286 288 286 284 283 285 285 286 286 285 284 284 284 284 285 284 284 284 284 284 284 284 284 283 283 283 283 282
287 285 286 283 287 285 283 286 288 289 290 292 295 293 294 295 292 289 289 289 289 289 288 289 289 288 287 287 286 286 288 290 290 291 290 290 290 290 289 288 288 289 288 288 288 288 285 287 287 287 287 286 284 282 283 283 286 286 286 286 284 283 284 284 284 285 284 284 283 284 283 283 284 283 283 283 284 284 284 283 283 282 283 283 282 282
287 286 285 285 283 287 288 288 290 289 288 290 292 292 292 291 289 289 288 288 288 289 288 287 288 288 287 286 286 286 287 287 288 289 290 290 290 290 289 288 287 286 286 286 287 287 286 285 285 285 286 286 282 283 283 283 284 285 286 283 282 282 283 284 284 284 283 283 283 283 283 282 282 283 283 283 284 284 284 284 283 283 282 282 282 282
285 285 285 283 284 284 279 286 287 286 286 288 291 290 288 289 289 289 289 288 288 287 288 287 287 287 287 286 285 286 286 287 287 288 289 289 290 290 290 290 290 289 287 287 287 286 286 284 285 285 285 286 284 281 282 282 283 283 282 281 281 282 283 283 284 283 282 282 282 281 282 282 282 282 283 284 284 284 284 284 283 283 282 282 282 281
281 286 281 281 282 281 281 285 285 285 286 288 290 288 289 290 290 289 290 289 288 287 287 288 287 287 286 286 286 285 287 287 286 287 288 289 289 290 291 291 291 290 288 285 285 283 283 284 284 284 285 285 285 282 281 282 281 281 281 280 282 281 282 282 283 282 281 281 282 282 282 282 280 282 283 283 284 283 283 283 283 282 282 282 281 280
282 284 275 281 280 282 284 284 285 285 286 288 287 288 288 289 289 289 289 289 287 287 287 288 287 288 288 289 288 286 286 288 288 288 288 289 289 290 291 291 291 290 288 286 283 282 284 283 284 284 284 284 282 280 279 279 278 278 279 280 281 282 282 282 281 282 281 281 282 282 282 282 283 283 283 283 283 283 283 283 282 282 282 283 283 283
282 277 281 280 277 278 279 281 284 281 282 285 287 288 288 288 288 288 289 289 289 288 288 288 289 289 288 289 288 288 288 288 289 288 288 289 289 290 290 290 290 289 288 285 282 282 282 282 283 283 283 283 280 278 277 276 277 277 278 279 281 282 283 282 282 282 281 281 281 281 282 282 282 282 283 282 281 280 280 280 284 283 282 281 283 284
279 280 281 276 278 278 282 283 286 285 285 287 289 287 287 288 288 288 288 289 289 289 288 287 287 288 289 290 288 287 288 288 289 289 288 288 289 290 290 289 288 288 288 286 283 282 281 282 282 281 281 281 278 278 277 277 277 277 279 281 282 283 283 283 283 282 282 282 281 281 281 281 281 281 282 281 280 280 279 279 281 284 284 283 283 284
Wind_Speed
1 2 3 3 4 5 5 5 4 4 4 2 2 0 1 2 5 3 2 2 1 1 5 6 7 10 9 7 8 9 8 7 8 9 8 6 6 8 9 9 9 8 10 6 9 12 12 12 11 9 7 7 7 8 9 10 10 11 11 10 11 8 8 8 8 7 7 7 5 4 6 6 5 6 5 4 4 4 4 4 4 5 6 7 9 11
1 1 4 4 7 2 5 10 2 2 4 2 3 3 3 1 3 3 3 1 2 1 2 3 6 10 12 8 7 7 7 12 11 10 10 10 9 8 9 10 11 11 5 5 6 6 7 6 6 6 7 8 11 10 10 12 12 11 10 11 10 9 9 9 8 8 7 5 6 6 6 4 5 6 7 6 4 5 4 5 5 4 6 7 8 8
1 4 4 5 2 5 6 5 4 2 1 1 0 1 1 4 2 2 5 3 1 2 6 5 6 10 11 9 8 9 11 11 10 10 10 8 9 9 8 9 10 7 8 6 6 6 7 7 7 7 6 6 8 8 10 9 8 9 9 9 9 9 9 8 8 8 7 5 5 5 4 6 3 2 4 5 5 4 5 5 5 5 5 8 8 9
2 4 10 2 3 5 3 3 2 1 0 0 3 1 3 1 2 2 0 2 4 3 3 4 7 11 13 14 18 16 10 10 10 10 10 10 12 13 11 8 6 6 7 7 8 8 7 8 8 6 7 8 6 6 6 6 9 8 7 7 8 9 7 7 7 8 6 7 5 4 4 4 5 4 5 5 4 4 5 6 5 5 6 7 8 9
4 1 1 4 2 2 3 1 2 2 2 4 3 3 3 1 2 4 1 1 2 2 1 4 8 8 10 11 9 9 10 9 10 7 10 12 10 10 7 6 6 6 5 6 6 6 7 8 9 9 7 6 7 7 8 7 7 6 7 7 8 8 8 7 7 8 7 7 6 5 6 6 7 5 5 5 5 6 5 5 5 6 5 6 7 8
3 0 1 4 1 1 3 3 4 4 4 3 5 7 4 2 4 4 4 6 4 2 0 0 6 4 1 9 9 8 1 3 5 7 11 11 9 8 8 9 7 6 5 5 8 11 11 9 5 5 6 7 7 7 7 8 9 8 8 8 7 7 6 7 8 8 7 8 8 8 8 8 7 7 8 10 10 8 7 7 4 4 5 6 6 7
1 0 0 4 4 3 2 3 4 3 3 1 2 2 1 2 3 3 3 3 3 2 1 1 0 8 2 5 5 6 5 6 4 7 10 8 8 6 8 8 7 7 5 5 4 6 7 6 7 6 8 8 8 6 5 6 7 6 6 6 7 7 6 6 7 9 8 8 8 10 9 8 10 10 8 5 5 7 6 6 7 5 4 6 8 8
3 1 3 2 4 4 3 3 3 7 3 2 1 2 2 2 1 1 1 0 4 3 5 5 5 6 9 8 11 14 14 11 7 8 7 7 7 7 7 7 6 6 6 5 5 5 8 9 10 11 9 8 8 6 5 6 6 7 7 7 7 6 7 6 6 8 8 9 9 9 9 8 8 7 6 6 6 6 6 7 6 5 4 5 6 7
2 5 4 4 2 3 6 1 4 7 3 1 1 1 4 3 3 1 1 2 3 5 8 4 4 2 6 3 8 12 8 7 9 9 7 7 6 6 6 4 5 5 5 6 6 6 8 9 8 7 7 6 6 7 7 7 6 6 6 7 7 7 7 7 6 7 7 7 8 9 8 8 6 5 5 5 6 6 6 7 6 6 5 4 5 6
3 1 2 4 5 5 3 2 3 4 3 2 1 4 4 3 2 1 1 2 3 2 9 6 5 2 15 4 6 5 6 6 9 10 8 7 6 3 5 6 6 5 5 5 5 5 5 7 6 6 6 6 7 6 6 6 6 7 6 8 8 7 7 7 7 7 7 7 7 8 9 9 7 6 6 7 7 7 7 8 7 6 6 5 5 5
1 3 4 1 3 1 4 4 3 6 3 5 2 5 2 2 1 1 0 1 3 3 6 9 9 2 8 3 10 8 6 8 5 2 3 4 2 4 4 6 5 5 4 4 5 4 4 5 6 6 7 6 6 6 7 7 7 7 7 8 9 8 8 8 8 8 8 8 9 9 10 10 9 8 8 8 8 7 7 8 7 7 6 6 6 5
1 2 0 0 1 3 3 4 5 2 2 4 2 2 2 1 2 1 0 1 1 7 1 8 9 8 6 3 1 2 3 5 7 5 4 3 1 4 4 5 5 5 5 4 5 5 5 5 5 5 6 7 7 7 8 7 7 7 7 8 9 8 9 8 8 9 9 9 10 9 10 11 10 9 8 10 10 9 9 8 8 6 5 6 5 6
2 3 2 2 4 4 3 6 3 3 0 0 3 3 6 2 1 1 1 2 5 8 2 1 7 1 17 6 1 1 1 2 2 2 2 0 1 3 5 5 5 5 6 6 5 5 5 6 7 7 6 7 8 9 8 9 8 7 7 8 9 8 8 9 9 9 9 10 10 10 10 10 9 9 9 9 9 9 9 8 8 8 7 6 6 7
3 3 5 3 4 4 3 8 3 1 3 4 7 7 5 2 2 3 4 2 3 4 0 2 4 7 9 4 8 13 15 7 4 4 1 2 2 4 2 5 5 5 6 6 6 6 6 7 6 6 7 7 8 8 9 8 8 7 7 8 9 9 9 8 10 10 10 10 11 11 10 9 9 9 9 8 8 8 8 8 9 10 9 9 9 9
3 3 6 6 3 6 5 7 9 6 9 9 3 8 8 5 4 4 4 5 7 4 1 2 3 8 2 2 2 1 2 6 7 4 4 4 5 5 2 3 5 5 5 6 6 7 8 8 7 8 7 7 8 8 8 7 7 7 7 9 10 9 9 9 10 10 11 10 11 11 10 9 7 9 9 8 7 9 9 8 9 9 8 9 10 10
13 6 2 16 2 14 12 6 4 5 2 3 3 0 3 8 0 3 1 1 1 2 3 3 7 2 4 2 3 3 5 4 3 7 6 6 6 2 3 5 5 6 6 6 6 7 6 7 7 7 7 7 7 7 7 7 8 8 8 8 9 9 9 10 8 9 10 9 9 10 11 11 8 7 8 7 7 8 9 9 9 9 9 9 8 8
2 4 2 4 5 13 10 5 3 7 5 5 4 6 6 1 2 1 2 2 2 2 11 2 8 8 4 12 10 14 13 12 3 2 4 7 6 5 6 8 5 5 6 6 7 7 7 6 7 8 8 7 7 7 9 9 9 10 9 9 9 9 7 9 9 8 7 8 9 11 11 10 9 8 10 9 9 10 9 8 9 8 9 8 8 8
6 2 3 1 3 1 0 2 0 2 1 7 3 6 2 3 2 3 4 1 2 7 8 4 11 10 1 13 1 6 7 8 4 8 7 7 6 7 8 7 9 5 6 8 7 7 8 8 8 7 7 7 8 8 8 9 8 9 9 9 10 10 11 9 9 9 8 9 9 9 11 10 9 8 8 8 9 9 9 8 8 8 8 9 8 8
5 1 2 1 4 2 3 1 1 1 4 2 5 1 6 2 4 2 3 5 5 4 5 5 5 10 10 13 5 4 4 6 7 7 7 7 7 8 7 9 12 3 4 5 6 6 6 6 7 7 7 6 7 7 8 8 8 8 8 8 10 11 10 10 8 7 7 8 7 7 9 10 9 8 8 8 8 8 9 9 9 10 9 8 9 9
3 6 1 2 1 0 0 3 9 7 1 0 1 1 0 1 2 6 6 1 3 6 2 12 3 15 4 7 6 12 7 10 9 7 8 10 9 8 7 8 9 7 4 6 6 6 6 6 7 7 7 7 8 7 7 8 7 9 9 9 9 7 7 8 8 8 8 8 8 8 8 9 9 8 8 8 9 9 9 9 9 9 8 9 8 9
2 4 6 0 5 2 2 5 9 9 9 2 1 2 0 1 1 3 2 4 4 2 4 3 10 12 4 6 6 10 10 10 10 10 7 8 8 7 8 8 6 6 5 5 5 5 5 5 5 5 5 5 5 5 6 8 10 9 9 10 11 12 10 10 9 9 9 8 9 10 12 11 11 11 9 8 8 9 9 9 9 8 8 6 8 9
2 3 8 3 0 5 7 7 11 12 16 15 15 13 15 10 5 3 7 1 1 2 3 1 12 15 3 0 3 3 3 7 8 8 8 7 6 6 6 6 6 4 3 3 3 4 4 4 4 3 3 4 5 6 7 7 7 8 10 10 10 10 10 10 10 10 9 9 9 10 11 12 11 11 9 10 9 9 9 8 9 9 7 8 8 9
10 3 4 6 9 10 4 0 1 2 1 3 7 9 9 6 4 4 6 4 0 3 2 3 2 24 3 5 2 2 3 4 5 5 6 4 3 3 3 3 2 2 4 4 4 5 5 5 6 6 6 6 7 6 6 7 9 10 9 9 9 11 11 10 10 9 9 10 10 10 9 9 10 10 11 11 9 10 9 8 8 8 10 9 8 7
4 1 3 3 3 1 2 1 2 2 2 1 3 1 4 8 9 8 6 5 6 3 5 6 6 16 3 4 3 5 4 5 4 4 1 2 2 2 1 2 4 2 2 3 3 3 4 4 4 5 5 6 7 7 9 9 8 9 9 10 9 11 11 10 9 9 9 9 10 9 9 10 8 10 10 11 10 11 10 9 8 8 9 9 8 9
5 3 6 4 0 1 0 1 2 1 2 0 2 3 4 5 8 4 1 1 2 8 10 8 12 18 0 2 2 3 1 1 1 0 1 2 4 3 3 4 5 5 4 3 4 5 4 4 6 7 7 8 8 8 9 10 10 9 10 9 10 9 9 10 9 9 9 8 10 10 11 11 11 12 12 12 10 12 11 10 9 9 10 9 9 8
6 6 9 8 11 11 8 9 9 5 8 4 4 7 9 8 7 6 8 5 8 8 11 7 11 18 7 4 3 2 4 3 4 3 2 4 5 3 1 3 5 5 5 6 8 4 5 7 6 5 7 7 8 8 9 9 10 10 9 10 8 9 9 10 9 9 9 8 10 10 12 12 12 14 14 13 12 12 11 10 10 9 9 10 10 9
2 2 8 11 13 14 12 2 4 8 4 6 8 12 10 11 11 8 4 7 14 12 10 11 16 20 20 9 1 0 0 3 4 4 4 4 5 5 5 5 5 3 5 6 3 5 5 6 10 10 8 9 9 9 10 9 9 8 8 9 9 9 9 9 9 10 10 10 10 10 12 13 13 12 12 12 12 10 10 10 10 10 11 10 10 11
2 3 9 12 13 12 6 1 5 16 13 14 14 13 15 13 13 12 12 16 15 8 15 15 13 13 27 19 10 11 6 5 5 4 4 5 6 7 7 8 8 5 5 2 2 5 9 10 8 8 11 10 11 10 8 9 9 9 10 11 10 9 9 9 10 10 9 10 11 12 13 12 11 11 11 9 9 11 11 11 11 11 10 9 11 12
4 6 6 6 11 12 8 1 4 6 10 12 16 15 16 16 13 16 18 20 15 14 19 16 9 16 24 21 5 6 8 11 10 7 6 5 4 3 4 6 7 7 7 6 7 8 8 8 8 10 10 11 9 9 11 8 9 8 9 10 9 9 11 9 10 11 10 10 12 14 11 10 10 10 10 10 10 11 12 12 11 11 10 10 10 10
2 5 4 3 5 6 8 8 4 5 3 2 5 9 11 14 18 20 22 23 22 15 13 15 17 19 16 17 13 5 6 10 11 8 9 11 13 12 9 8 8 8 8 9 8 8 8 9 10 11 10 9 10 12 11 11 11 13 13 11 10 10 10 8 11 12 11 12 13 10 9 9 9 10 10 11 13 12 11 11 11 11 11 12 11 11
4 4 4 1 2 7 10 7 3 3 4 4 4 5 3 8 16 21 20 17 12 13 16 19 19 21 18 15 14 13 11 9 12 15 13 14 15 9 6 6 7 8 8 7 7 7 8 11 12 10 9 9 11 13 13 13 13 11 11 10 12 12 11 9 10 11 12 14 11 9 9 9 11 10 12 13 12 11 12 12 10 11 11 11 11 12
3 3 3 2 4 10 13 8 7 3 3 5 5 7 13 15 13 11 11 8 11 17 17 12 14 18 20 11 9 16 16 10 13 17 15 10 9 6 7 11 11 8 8 9 9 9 10 11 10 11 11 11 11 12 11 12 13 12 13 14 14 13 9 10 12 13 13 12 10 10 11 11 10 11 13 12 13 13 11 10 10 11 11 11 11 10
3 3 4 3 7 12 15 5 5 4 2 7 12 17 22 19 12 5 6 11 18 14 10 11 17 15 15 14 14 15 17 15 12 13 16 17 13 8 8 10 12 10 9 8 8 10 10 10 10 11 12 10 10 11 14 14 12 12 15 15 16 9 8 12 13 12 12 11 12 12 12 10 12 12 12 13 12 11 10 11 11 12 12 12 11 9
6 7 4 4 6 5 12 6 1 3 12 13 13 20 16 17 16 16 17 19 15 11 11 13 14 13 13 14 16 16 16 14 13 13 14 15 12 6 5 8 10 7 6 7 8 10 11 10 10 10 10 9 9 12 14 13 15 16 15 13 7 10 13 13 13 13 13 11 12 13 12 11 12 13 13 10 10 11 11 12 13 11 10 9 9 11
10 9 7 5 3 4 2 4 3 13 12 8 9 5 14 19 19 21 21 20 18 17 13 13 14 16 19 18 17 17 14 14 15 15 18 20 15 7 7 12 15 12 12 14 14 12 12 13 14 14 10 8 8 7 7 7 10 12 7 8 11 11 12 12 12 12 11 12 12 11 11 13 13 13 11 11 11 11 11 12 10 11 11 11 12 12
9 11 5 3 2 1 2 5 8 6 2 1 3 10 12 14 13 8 11 13 15 16 16 18 20 18 16 16 17 14 13 15 14 13 18 19 9 5 10 15 13 11 12 13 13 12 12 12 13 12 10 7 6 6 6 9 10 9 10 8 10 10 11 12 12 12 10 12 12 13 13 13 13 13 12 12 12 12 13 13 13 13 11 10 10 9
13 7 6 5 6 8 4 10 13 5 11 6 7 6 7 6 6 11 12 14 16 15 15 15 17 16 16 16 16 13 12 10 12 17 17 6 6 8 11 15 13 11 11 11 10 11 10 8 7 9 7 7 7 6 7 8 6 8 7 8 9 10 11 10 12 12 13 14 13 13 13 13 14 13 12 12 13 14 14 14 13 11 9 11 11 11
11 12 8 9 6 9 10 10 7 6 11 13 17 15 3 7 8 7 9 10 8 11 13 14 14 15 17 13 8 9 9 7 12 17 11 2 6 9 9 9 10 7 6 7 7 6 7 6 6 7 6 8 8 7 7 6 6 7 8 9 8 9 10 11 14 13 14 14 12 12 13 13 13 12 12 12 14 14 12 10 8 10 10 12 12 12
10 10 8 13 6 8 10 11 11 12 11 7 14 6 5 6 8 5 6 12 7 11 5 5 10 13 11 7 8 8 5 9 12 14 12 4 5 7 8 6 6 5 3 2 4 6 7 6 6 6 6 6 8 8 4 4 6 7 9 9 9 10 11 12 14 13 14 14 12 10 9 10 10 11 12 13 13 12 11 11 10 8 8 9 8 9
13 9 6 9 11 11 10 10 11 5 8 7 7 4 2 5 5 5 9 7 11 10 4 8 13 12 9 8 8 5 6 9 11 13 12 7 1 1 0 3 6 9 8 6 5 5 6 6 6 9 8 7 8 6 3 4 5 7 9 9 8 9 12 14 15 13 8 6 7 7 9 9 10 11 12 13 10 9 9 7 7 8 9 8 7 8
10 9 11 16 12 12 15 10 5 5 3 4 6 1 0 2 7 9 14 6 1 4 8 9 10 11 10 9 6 8 9 11 12 13 11 4 5 7 6 4 5 5 8 9 7 6 5 6 5 6 7 7 6 5 2 4 5 7 8 7 7 12 15 12 7 5 6 7 7 8 9 9 10 11 10 9 10 9 8 8 9 8 9 9 7 7
4 3 3 9 14 15 12 14 11 6 3 3 5 1 3 4 7 10 4 2 3 4 4 5 6 7 5 8 7 8 8 9 8 7 9 7 2 3 5 7 7 7 7 7 7 5 7 7 6 6 5 5 5 3 2 4 6 8 6 6 11 15 7 4 5 6 6 8 9 9 9 9 7 8 9 9 9 10 9 8 9 9 10 8 8 9
7 5 5 7 2 4 4 9 9 9 1 4 2 1 1 4 2 1 6 10 5 4 5 6 2 4 2 5 6 7 7 7 8 9 9 10 7 5 4 6 7 7 8 9 13 10 6 10 11 10 8 5 3 2 4 4 7 7 7 10 14 6 3 4 5 6 7 6 7 7 8 7 9 9 8 9 10 11 10 9 9 8 8 8 8 8
3 6 3 4 5 5 6 8 5 3 3 3 5 5 0 3 8 7 3 3 7 7 10 10 7 7 8 6 7 10 10 10 11 10 11 13 11 6 3 4 5 6 6 6 6 8 7 8 9 9 9 6 4 3 3 5 7 8 8 13 4 3 4 5 5 6 6 6 6 6 7 7 8 8 8 9 9 8 9 8 8 7 7 7 8 8
6 8 2 5 1 6 4 3 2 3 2 1 2 4 5 3 4 4 5 2 4 6 3 5 7 6 3 2 4 5 8 9 12 12 11 11 11 10 9 7 5 7 7 7 9 8 6 7 10 10 10 7 5 4 4 4 7 8 10 6 2 4 5 5 5 6 6 6 6 7 7 7 7 8 8 8 9 10 8 8 9 8 7 8 7 7
3 1 2 1 2 3 4 4 7 5 4 7 2 5 4 4 2 5 6 5 3 4 4 4 6 7 6 3 4 5 4 6 8 12 13 13 12 11 7 7 7 6 7 6 8 7 6 6 7 9 12 12 5 5 4 5 6 9 8 1 2 4 4 5 6 6 6 6 6 7 8 8 6 7 8 8 7 8 8 10 9 8 7 7 7 7
1 3 1 2 3 0 4 1 0 5 5 6 3 2 3 4 4 4 4 3 3 4 6 5 4 6 6 6 4 6 7 6 6 9 10 11 13 13 13 12 11 8 7 8 8 7 8 6 8 11 10 13 8 4 5 5 6 6 3 3 3 4 5 5 6 6 5 7 7 7 8 9 8 7 7 7 7 6 6 6 6 7 7 7 5 5
2 1 4 2 1 2 3 6 7 4 2 1 2 6 7 7 5 2 1 1 3 4 4 6 5 6 5 6 5 5 8 7 6 8 8 9 11 12 13 13 13 13 8 5 6 5 5 6 8 10 10 11 10 5 5 5 5 4 4 5 6 6 6 5 6 7 7 8 8 8 8 9 11 11 8 8 8 8 7 6 7 8 9 9 9 8
2 4 1 2 1 6 5 7 7 3 1 1 5 6 4 4 4 6 7 6 5 4 5 5 4 6 5 8 6 5 7 10 8 7 8 9 10 10 11 12 13 13 11 8 5 4 6 6 8 10 9 11 7 5 5 4 3 2 4 4 6 8 8 7 6 7 7 7 7 8 7 8 9 9 10 9 8 8 8 10 10 9 7 5 6 8
2 1 3 2 4 4 4 3 4 6 6 4 5 5 6 5 4 5 7 8 8 7 6 6 9 6 5 5 5 5 7 10 10 7 9 10 10 11 11 13 13 12 12 7 4 5 6 8 9 10 10 9 4 4 4 3 2 1 1 2 4 6 9 9 8 7 7 7 7 7 7 7 7 7 7 8 7 8 7 8 8 5 7 6 6 7
4 2 2 2 3 6 3 2 1 2 5 7 7 3 4 5 6 7 8 9 9 7 5 5 7 9 10 9 5 5 7 8 12 9 9 10 11 10 10 11 12 13 12 9 7 8 7 9 8 8 9 8 4 2 1 1 1 0 0 1 3 4 6 8 8 7 7 7 7 8 8 8 8 7 7 7 8 8 8 7 8 10 9 7 8 8
Wind_Direction
45 167 184 200 218 189 206 217 222 52 25 5 349 79 293 344 312 79 91 114 271 351 258 246 263 269 265 253 256 261 267 269 265 264 258 248 233 230 233 237 240 237 235 213 197 189 189 185 183 177 167 170 166 173 175 172 175 179 173 161 173 175 164 163 160 160 162 163 167 183 187 177 162 148 142 156 163 177 184 190 203 180 152 153 160 166
86 242 228 217 226 259 216 193 144 109 45 18 7 13 317 252 250 276 162 189 7 56 287 300 297 279 276 264 256 259 259 259 254 254 252 250 246 240 233 235 236 238 241 210 205 186 174 167 166 160 164 166 171 187 182 184 181 178 172 172 169 171 172 174 171 162 166 175 179 171 184 164 163 154 161 169 175 180 170 181 188 194 164 159 154 165
112 202 232 227 119 92 43 57 61 24 338 112 190 286 281 277 259 48 80 111 122 103 269 268 258 270 273 273 263 241 238 242 241 237 245 247 248 246 240 235 233 231 234 211 197 157 157 156 160 166 171 185 187 183 188 185 172 175 177 174 167 176 176 176 164 157 169 168 177 173 173 170 128 99 136 152 163 158 167 176 184 189 181 161 158 162
216 225 236 97 102 87 70 71 66 156 151 183 165 311 221 234 79 286 220 190 185 193 252 305 301 273 273 268 261 258 243 248 246 247 251 240 246 247 244 240 236 223 219 199 177 170 165 168 170 168 179 185 177 178 182 181 180 179 182 173 168 177 176 172 163 157 159 165 176 190 168 130 127 143 106 111 134 146 151 173 179 190 180 164 162 163
200 71 36 110 87 121 145 154 155 136 217 215 213 220 234 220 212 181 256 209 230 218 36 313 280 267 236 255 277 271 244 229 245 243 249 250 246 250 256 258 229 230 213 193 182 172 169 176 187 185 177 165 181 183 184 179 178 180 185 180 171 173 179 173 159 157 155 135 125 106 89 97 91 87 122 136 171 179 168 148 166 178 165 161 161 166
232 137 176 101 104 151 144 158 194 161 241 207 215 199 218 285 321 360 3 10 347 303 199 62 348 299 249 214 239 277 278 222 229 221 236 240 246 245 247 246 245 244 227 196 184 185 186 187 172 157 167 177 187 190 185 177 180 178 184 177 167 164 171 166 163 166 152 152 153 153 157 169 176 175 176 189 184 174 175 171 143 132 159 160 163 163
197 357 210 144 147 159 190 197 199 164 204 258 277 309 234 295 30 20 335 34 325 297 239 215 172 270 334 288 249 253 242 233 241 218 240 240 239 228 229 235 228 221 228 226 187 164 170 172 161 176 181 185 187 196 174 175 180 175 172 172 166 162 167 169 166 166 151 166 172 182 186 188 190 189 196 177 156 164 157 147 161 151 151 165 164 167
90 207 71 114 113 137 153 216 211 165 164 245 291 355 73 47 114 296 38 213 246 305 282 185 156 269 286 241 226 234 243 255 258 254 246 240 230 225 224 218 205 196 194 174 192 164 169 166 172 184 186 183 187 176 167 169 172 174 172 170 169 159 164 171 167 163 164 173 180 187 195 195 200 199 177 167 153 150 146 153 155 148 144 154 167 164
139 165 155 156 162 154 182 215 182 173 164 198 281 358 76 78 60 37 77 315 293 11 300 134 170 288 256 251 200 196 226 234 237 242 251 253 247 235 228 193 161 156 139 146 159 181 159 170 181 173 175 179 167 171 172 171 173 171 168 166 164 160 161 172 172 163 172 177 183 193 200 202 201 182 156 147 147 144 148 149 151 154 154 147 149 159
2 163 192 171 156 194 104 14 4 178 140 266 166 61 84 62 40 81 348 41 323 28 275 151 187 218 284 234 167 195 194 201 221 230 232 241 240 184 111 104 107 96 102 127 153 165 151 161 165 164 156 161 174 171 164 163 165 171 164 168 171 169 167 173 173 162 174 179 179 196 204 206 195 175 152 155 160 157 158 158 162 156 160 163 153 152
108 189 165 93 196 94 117 46 41 63 94 144 152 79 45 45 82 0 41 68 34 268 251 157 198 159 280 294 171 150 209 192 205 223 237 234 194 139 138 131 132 130 132 122 116 117 120 133 145 141 155 165 163 166 163 167 171 173 171 172 180 176 169 174 171 168 179 185 186 196 203 206 196 184 163 162 168 160 167 167 163 166 168 166 166 156
142 42 299 130 25 130 104 71 16 15 113 129 116 122 91 6 41 29 339 54 145 263 267 176 177 171 224 297 281 213 179 183 170 183 216 236 184 134 132 132 137 143 145 148 129 130 121 114 134 144 157 167 169 166 171 174 173 177 178 176 181 178 171 173 169 173 184 190 194 196 201 207 202 189 177 176 173 174 175 169 165 161 154 166 162 161
219 205 141 39 291 149 142 90 17 22 348 100 133 132 118 210 60 310 90 258 198 235 280 15 166 325 241 226 255 253 73 210 225 183 191 317 319 142 160 154 150 145 145 151 159 156 157 169 170 177 175 168 176 183 180 179 177 179 181 181 185 189 176 172 165 175 185 192 199 197 200 203 198 194 183 181 174 174 176 171 165 167 173 162 165 175
267 144 164 143 37 254 181 141 170 43 234 183 165 156 123 178 184 236 216 209 252 272 342 86 22 245 270 301 211 246 252 227 212 243 245 250 234 261 190 172 165 169 167 170 169 173 181 184 188 188 183 182 183 186 186 182 180 181 183 183 188 196 187 169 170 176 185 195 200 202 203 199 190 193 183 185 177 177 180 174 177 180 177 178 184 175
219 305 234 128 252 163 203 207 176 166 169 200 184 160 171 162 172 210 175 202 217 229 227 279 94 240 74 243 326 319 298 223 214 216 214 206 219 224 211 185 174 174 181 171 173 182 188 190 185 187 191 188 190 188 187 186 183 178 185 187 191 191 190 187 172 175 184 190 199 204 208 205 190 185 181 184 174 172 177 180 182 188 182 186 187 188
209 225 204 182 167 156 185 210 174 116 126 215 215 263 277 225 93 198 187 229 324 1 329 223 211 226 189 276 256 292 320 330 201 224 229 253 263 270 273 242 211 195 185 179 184 196 196 190 185 187 193 194 193 191 190 189 182 186 192 191 195 193 190 193 183 182 181 186 196 202 204 206 195 180 175 170 160 172 179 181 184 186 188 194 190 186
112 227 60 68 130 173 191 165 204 152 189 208 134 218 199 324 146 357 332 54 95 29 255 168 287 263 304 266 241 251 250 242 235 264 235 240 249 265 262 264 246 209 191 187 198 199 196 192 193 190 190 193 191 192 195 191 188 188 188 191 195 197 195 196 195 191 183 186 196 204 203 199 198 187 182 175 167 170 177 180 186 185 192 187 184 178
143 202 322 103 177 315 22 273 245 36 107 105 190 222 86 53 94 137 207 53 183 219 262 126 241 284 347 290 260 212 234 254 193 227 225 228 235 241 249 262 267 221 190 194 200 199 195 192 190 191 194 192 192 193 192 194 187 190 191 190 194 195 198 201 193 191 188 191 199 203 205 204 200 192 185 177 170 169 174 182 182 183 185 189 182 173
158 233 252 353 0 345 345 38 23 9 49 122 176 333 137 250 260 238 89 249 240 241 281 254 249 263 219 246 299 297 215 233 218 223 219 230 234 235 247 260 263 257 159 168 188 192 189 184 190 191 193 193 191 191 192 187 185 190 194 194 194 198 199 198 195 184 184 186 195 202 205 204 201 193 185 183 172 171 180 182 182 186 189 181 172 166
141 204 267 329 352 142 45 149 197 209 3 101 17 356 143 98 196 151 193 195 135 243 227 276 296 265 150 235 192 245 214 209 211 212 215 215 216 221 233 247 255 267 206 198 195 193 189 189 189 188 187 191 190 188 188 184 185 194 195 193 196 197 195 196 193 177 182 181 187 197 196 203 202 195 190 186 179 180 186 184 180 180 177 181 165 169
274 153 239 227 313 102 193 207 215 164 161 230 178 243 177 151 254 114 300 174 172 192 212 282 290 263 231 210 193 209 218 203 188 204 209 215 216 210 221 232 242 239 216 199 187 186 187 184 181 184 187 190 192 187 184 187 192 193 196 201 194 193 196 199 191 182 188 179 191 191 197 197 196 196 191 189 186 184 188 185 183 182 177 151 173 162
200 152 200 117 20 227 229 206 207 191 187 181 185 203 192 163 161 176 261 164 190 159 231 243 260 276 191 319 170 166 186 164 173 171 194 213 205 213 230 233 223 227 229 167 157 158 172 158 156 165 176 183 193 202 198 197 189 196 204 206 200 193 198 195 198 190 182 186 189 196 197 195 193 191 188 190 188 190 187 183 184 179 161 174 174 168
183 158 153 178 207 207 195 351 140 78 244 243 197 226 197 186 169 164 205 243 102 247 254 223 0 269 182 190 153 124 124 148 175 150 145 173 200 232 242 226 207 176 184 159 150 161 177 174 171 174 180 196 204 210 211 206 200 201 205 206 210 201 198 193 198 195 182 183 188 197 199 197 196 189 189 188 186 191 186 182 180 174 175 178 172 175
169 145 162 239 104 91 31 147 47 51 72 345 273 18 150 193 192 196 192 185 182 178 209 242 228 264 65 47 74 74 84 94 65 81 109 79 355 337 167 164 161 151 173 144 142 159 164 157 163 164 187 206 215 211 213 216 209 205 205 206 208 211 196 189 193 195 193 186 187 187 194 201 196 191 192 192 188 188 186 180 180 176 180 180 172 176
180 209 171 161 208 298 29 359 334 23 65 164 205 202 223 209 199 207 45 19 222 200 205 174 234 257 350 195 207 150 80 86 104 327 78 308 284 244 193 202 202 191 176 177 189 189 153 168 190 196 193 204 214 219 217 217 216 209 210 204 210 217 203 190 186 190 197 191 182 182 190 198 194 196 195 194 186 188 183 183 180 180 183 175 178 177
178 167 171 179 202 213 215 203 200 185 205 208 208 212 206 199 182 126 215 195 231 233 211 212 249 260 230 43 57 51 156 200 228 223 233 204 221 232 224 238 234 200 191 198 201 170 197 210 216 217 211 212 219 223 226 223 220 217 210 209 206 211 213 200 184 189 189 191 184 188 192 198 198 200 197 193 190 187 184 182 182 181 185 181 178 175
165 212 193 194 201 216 226 216 185 137 96 185 219 201 208 202 201 189 162 193 219 231 237 230 234 260 267 230 343 276 340 226 248 267 254 271 276 262 262 267 272 257 212 214 190 200 214 208 214 221 216 212 212 215 221 226 230 226 219 214 207 206 208 208 190 188 188 192 196 197 201 199 203 203 200 195 190 184 182 183 181 180 186 183 178 179
107 210 215 214 225 232 224 171 200 159 178 202 204 209 207 199 198 200 194 220 213 219 246 237 231 250 262 253 231 256 254 262 250 240 262 256 240 232 233 245 247 247 270 294 232 222 220 225 227 220 221 215 217 217 220 220 220 223 223 220 210 202 200 204 196 190 188 188 200 208 208 203 198 199 200 196 190 186 185 181 182 186 183 179 182 185
149 203 231 217 237 245 246 70 146 187 187 195 205 204 200 201 196 202 219 228 215 209 230 241 222 235 254 265 234 213 248 256 260 255 245 250 276 281 277 262 255 250 256 249 244 236 239 243 237 233 229 223 213 211 218 219 223 223 230 231 220 207 209 199 194 195 190 190 202 211 207 203 199 195 192 189 190 190 188 186 184 182 183 185 188 188
124 235 233 212 256 265 264 246 226 245 273 255 230 224 212 198 204 207 218 224 224 230 240 253 255 252 260 275 270 250 268 282 287 294 297 298 286 278 272 263 250 247 247 244 243 243 242 246 248 242 235 224 209 214 212 213 218 218 217 221 221 214 214 185 203 197 194 200 208 203 201 204 201 197 190 188 193 192 187 185 183 182 187 190 190 188
138 258 210 41 291 269 262 269 285 271 280 277 299 316 265 213 214 216 222 230 244 257 252 253 260 267 261 261 286 283 270 286 297 287 279 275 280 281 266 260 247 243 246 249 250 256 256 256 257 257 248 231 215 215 214 214 217 219 220 218 218 217 209 192 202 205 197 206 204 194 195 200 205 196 197 196 190 190 186 184 181 184 189 191 191 189
119 271 45 86 232 263 260 251 253 265 278 265 259 259 265 252 237 225 227 216 219 230 237 250 258 259 266 275 274 280 280 267 268 275 277 275 272 281 287 277 268 253 254 260 266 265 263 263 264 260 254 243 224 219 216 215 215 209 216 218 219 216 198 193 205 208 206 204 192 195 197 200 199 201 201 191 194 188 184 179 181 186 188 189 189 190
149 146 164 139 212 242 259 242 247 239 254 265 246 238 231 240 251 251 234 216 223 224 233 232 242 252 267 272 270 268 272 275 267 275 285 279 273 263 257 265 266 260 257 262 261 261 263 264 260 257 256 251 233 222 220 214 210 210 216 215 218 198 187 203 206 209 209 202 195 198 198 193 199 204 201 198 190 183 178 181 184 186 188 190 184 175
155 169 201 160 219 228 251 260 141 232 234 230 227 232 229 231 229 236 240 240 238 214 228 231 248 255 261 266 263 261 264 266 273 270 264 271 280 281 274 269 268 266 276 270 263 266 271 271 268 262 255 251 239 225 224 210 210 217 217 213 187 188 203 202 207 206 209 204 201 199 195 194 197 203 204 195 186 183 185 185 191 188 183 176 176 183
179 183 206 167 204 224 239 87 238 232 240 238 240 223 224 231 229 228 235 238 242 244 247 253 255 252 249 251 258 266 273 280 276 278 283 279 280 294 281 278 281 284 278 278 276 274 271 272 276 277 276 272 260 244 227 224 216 226 211 188 199 200 201 207 207 209 207 206 205 195 194 198 197 200 198 192 187 186 191 191 188 185 184 181 184 186
179 186 175 210 172 307 256 194 239 223 216 328 239 217 220 224 228 237 256 251 247 241 236 240 242 248 257 263 265 266 272 276 282 274 268 274 299 287 278 275 272 270 271 269 272 272 272 271 272 279 282 277 272 260 220 223 216 209 212 195 198 196 205 206 209 211 207 212 206 201 199 195 195 195 192 191 188 188 191 192 191 188 183 180 184 188
177 172 172 227 172 223 193 228 244 325 306 261 272 242 196 182 162 189 231 239 232 230 235 241 246 253 252 252 260 273 277 283 283 276 266 278 281 242 241 262 266 262 260 264 260 265 271 282 293 289 287 287 276 265 240 233 204 203 200 190 203 199 205 203 211 211 210 215 207 203 198 196 195 193 188 188 190 193 192 190 191 188 179 182 183 184
183 188 177 209 209 193 224 249 252 229 236 250 237 252 135 174 190 190 199 255 251 231 224 229 240 247 251 254 262 264 268 291 280 273 284 158 216 256 253 256 272 279 288 288 297 300 299 297 297 293 285 281 283 262 246 226 193 194 199 205 201 201 207 206 215 213 214 215 207 203 199 198 192 189 185 187 195 195 193 187 184 187 183 184 183 189
215 212 190 200 211 190 210 223 230 237 240 230 266 256 220 183 185 155 182 243 244 243 212 211 243 244 246 248 247 246 261 258 260 268 287 276 239 258 280 281 290 314 295 289 293 303 303 294 284 281 294 294 287 288 272 210 190 193 210 208 205 206 211 213 219 214 214 213 205 202 195 194 191 188 186 191 196 190 185 184 185 179 178 189 185 186
203 200 192 226 212 211 216 222 229 216 251 236 258 288 246 182 143 98 232 239 243 250 201 215 237 250 249 233 236 228 202 247 258 269 270 280 314 294 40 354 334 320 310 292 285 274 280 296 325 317 313 305 289 301 270 194 190 209 216 218 207 210 219 220 220 217 212 199 191 186 189 191 191 190 188 189 182 181 181 167 164 174 180 184 182 180
201 206 204 215 216 223 225 244 257 266 254 259 264 199 85 160 135 195 232 239 257 159 189 204 224 227 231 240 214 237 226 229 245 261 280 12 25 341 321 300 285 289 301 312 308 318 320 311 309 293 295 293 292 303 248 186 202 225 227 220 211 224 225 225 215 185 188 185 178 179 186 186 189 187 184 177 174 166 164 168 172 167 175 180 182 178
192 205 214 207 219 225 227 235 241 272 227 202 278 228 173 118 218 229 239 191 175 257 244 210 223 239 227 227 226 232 246 256 265 293 310 328 358 271 288 304 320 324 313 308 311 338 329 313 305 298 295 283 287 278 215 197 222 240 235 224 230 233 230 198 181 178 177 182 184 180 180 181 174 172 166 161 158 165 172 171 167 173 175 179 179 178
184 185 197 210 190 246 219 238 231 231 308 230 184 338 138 183 266 318 4 334 321 314 302 300 288 309 300 278 266 263 280 305 319 319 317 313 325 330 323 325 322 318 316 323 323 324 345 320 314 312 304 303 275 235 217 195 232 243 238 233 241 238 193 176 170 173 177 175 176 175 172 166 159 160 156 161 164 164 168 165 168 171 169 171 168 165
203 212 195 219 170 209 207 226 221 189 191 215 156 207 357 355 18 34 39 334 335 5 8 346 352 26 15 16 354 344 332 327 321 324 323 318 320 329 326 306 302 304 303 292 273 286 317 304 297 296 298 298 284 241 219 202 239 244 240 246 251 176 162 161 163 161 164 165 159 153 157 157 157 153 154 155 152 156 158 159 158 158 165 164 162 161
191 201 232 224 267 211 215 203 191 192 199 267 26 25 80 71 67 57 70 56 4 341 2 358 324 334 16 23 334 320 317 312 306 309 311 302 305 306 309 300 283 286 284 286 289 292 296 285 290 297 292 283 268 247 231 220 233 255 249 258 157 173 159 157 151 153 156 152 152 153 151 146 148 146 146 150 151 154 154 149 148 155 166 164 166 166
30 18 322 88 250 248 260 255 265 297 8 348 44 94 86 60 55 68 57 15 340 306 313 308 305 310 315 324 311 295 268 281 300 303 303 304 303 299 292 293 291 273 272 278 287 289 286 293 291 291 290 292 258 246 230 224 213 240 254 225 165 159 149 146 148 152 153 148 146 144 138 132 129 134 140 144 151 153 157 157 161 160 162 163 168 166
88 59 56 179 253 176 287 276 287 331 339 327 340 57 93 84 56 33 27 12 294 297 311 301 291 294 291 296 281 267 279 275 278 282 286 293 299 300 303 304 302 295 281 280 272 295 306 311 303 295 293 294 292 267 259 239 232 226 213 166 155 142 142 147 148 144 140 140 135 135 137 135 136 134 137 141 137 138 140 144 148 148 150 160 149 130
276 69 65 245 206 180 250 324 308 275 248 242 114 27 1 356 359 2 320 281 277 285 282 289 308 309 298 295 271 272 276 276 269 274 282 284 286 293 297 299 300 304 292 250 263 268 281 286 281 283 288 284 287 280 263 253 244 216 172 156 146 142 138 142 147 146 147 143 143 145 146 142 143 142 145 147 145 141 141 145 151 154 163 168 165 162
227 350 180 250 177 270 301 301 281 317 334 357 356 357 355 3 349 337 336 334 322 307 295 293 276 271 292 288 299 289 285 282 275 268 273 279 284 286 289 292 295 293 293 296 272 237 241 258 264 265 270 269 273 258 251 252 253 233 183 167 153 146 143 146 145 142 146 148 147 152 152 150 156 155 150 149 149 149 156 163 165 161 165 169 175 179
73 269 235 321 331 280 231 261 33 348 309 314 322 309 328 334 15 339 325 323 320 322 316 314 306 294 267 271 277 278 276 283 285 281 276 276 276 282 288 291 289 290 290 283 255 236 243 246 252 265 268 272 267 237 235 242 269 273 237 174 167 155 149 149 147 148 155 156 154 152 149 150 150 149 145 138 131 113 77 59 98 128 147 145 132 131
199 199 300 202 232 260 265 242 83 235 255 263 269 297 338 335 342 331 316 305 307 313 312 312 309 312 314 306 297 285 281 279 282 285 281 276 276 273 276 281 285 287 287 295 299 277 248 249 246 255 265 268 260 236 225 214 292 298 259 182 182 168 157 149 148 151 156 159 164 162 155 152 149 150 141 136 131 124 115 101 73 93 102 106 131 145